Location: Fort Worth, Tx
(32.7431°N, 97.3695°W)
Time: 03:20:13
(UTC-05:00)

ISS - Visible Passes

Search period start: 15 December 2017 00:00
Search period end: 25 December 2017 00:00
Orbit: 402 x 407 km, 51.6° (Epoch: 15 December)

Date Brightness Start Highest point End Pass type
(mag) Time Alt. Az. Time Alt. Az. Time Alt. Az.
15 Dec -4.0 19:42:52 10° NW 19:46:07 69° NE 19:47:12 38° ESE visible
16 Dec -3.0 18:50:49 10° NNW 18:53:49 32° NE 18:56:47 10° ESE visible
16 Dec -0.9 20:27:52 10° W 20:30:05 17° SW 20:31:42 13° SSW visible
17 Dec -2.2 19:34:54 10° WNW 19:37:57 36° SW 19:40:59 10° SSE visible
19 Dec -0.4 19:27:59 10° W 19:29:35 13° SW 19:31:09 10° SSW visible
23 Dec -0.4 07:51:22 10° SSE 07:53:10 14° SE 07:54:58 10° E visible
